NORTHEAST SUFFOLK  -  Winter Weather Advisory Winter Weather Advisory        NORTHERN NASSAU  -  Winter Weather Advisory Winter Weather Advisory        NORTHERN QUEENS  -  Winter Weather Advisory Winter Weather Advisory        NORTHWEST SUFFOLK  -  Winter Weather Advisory Winter Weather Advisory        SOUTHEAST SUFFOLK  -  Winter Weather Advisory Winter Weather Advisory        SOUTHERN NASSAU  -  Winter Weather Advisory Winter Weather Advisory        SOUTHERN QUEENS  -  Winter Weather Advisory Winter Weather Advisory        SOUTHWEST SUFFOLK  -  Winter Weather Advisory Winter Weather Advisory      

Active alerts

Northern Queens
  Details for Northern Queens Winter Weather Advisory
Southern Queens
  Details for Southern Queens Winter Weather Advisory
Northern Nassau
  Details for Northern Nassau Winter Weather Advisory
Southern Nassau
  Details for Southern Nassau Winter Weather Advisory
Northwest Suffolk
  Details for Northwest Suffolk Winter Weather Advisory
Southwest Suffolk
  Details for Southwest Suffolk Winter Weather Advisory
Northeast Suffolk
  Details for Northeast Suffolk Winter Weather Advisory
Southeast Suffolk
  Details for Southeast Suffolk Winter Weather Advisory


WXM80 ListenWXM80 Stop

You find our weather info also at:

UK Metoffice

WeatherCloud

Weather Underground

Northeastern Weather Network

AWEKAS

Citizen Weather Observer Program (CWOP)

HAMweather, WeatherForYou, PWS Weather


Weather Underground History page Text

Daily Summary for January 14, 2018 Units:  English    Metric   Both
« Previous Day
Next Day »
Daily Weekly Monthly Yearly Custom
  High: Low: Average:
Temperature: 25.7 °F 15.9 °F 19.9 °F
Dew Point: 11.3 °F 3.0 °F 6.4 °F
Humidity: 71 % 40 % 56 %
Wind Speed: 11.3 mph 2.8 mph 6.6 mph
Wind Gust: 19.6 mph - -
Wind:- - South
Pressure: 30.46 in 30.15 in -
Precipitation: 0.00 in    
Historical Graphs
 
 
Tabular Data for January 14, 2018
Time Temperature Dew Point Pressure Wind Wind Speed Wind Gust Humidity Rainfall Rate (Hourly)
00:02 20.7 °F 7.9 °F 30.15 in North 6.4 mph 13.8 mph 57 % 0.00 in
00:08 20.7 °F 7.9 °F 30.15 in North 4.5 mph 9.2 mph 57 % 0.00 in
00:16 20.6 °F 7.8 °F 30.15 in NNW 9.6 mph 15.0 mph 57 % 0.00 in
00:21 20.4 °F 7.6 °F 30.15 in NNW 5.0 mph 9.2 mph 57 % 0.00 in
00:26 20.4 °F 7.2 °F 30.15 in NNW 5.1 mph 13.8 mph 56 % 0.00 in
00:31 20.3 °F 7.5 °F 30.15 in NNW 5.2 mph 9.0 mph 57 % 0.00 in
00:38 20.2 °F 7.4 °F 30.15 in NNW 10.6 mph 12.0 mph 57 % 0.00 in
00:43 20.1 °F 7.3 °F 30.15 in NNW 6.4 mph 8.1 mph 57 % 0.00 in
00:50 20.0 °F 6.8 °F 30.16 in NW 7.1 mph 10.4 mph 56 % 0.00 in
00:56 19.9 °F 6.7 °F 30.16 in NNW 5.4 mph 9.2 mph 56 % 0.00 in
01:05 19.8 °F 6.2 °F 30.17 in NNW 5.5 mph 11.5 mph 55 % 0.00 in
01:16 19.5 °F 6.0 °F 30.17 in NNW 7.0 mph 14.0 mph 55 % 0.00 in
01:24 19.4 °F 6.6 °F 30.18 in NNW 7.6 mph 11.0 mph 57 % 0.00 in
01:30 19.4 °F 6.6 °F 30.18 in North 7.0 mph 9.2 mph 57 % 0.00 in
01:39 19.3 °F 6.5 °F 30.19 in NNW 6.4 mph 10.4 mph 57 % 0.00 in
01:45 19.3 °F 6.5 °F 30.19 in North 4.7 mph 12.7 mph 57 % 0.00 in
02:05 19.0 °F 6.3 °F 30.20 in NNW 7.3 mph 12.7 mph 57 % 0.00 in
02:16 18.8 °F 6.1 °F 30.21 in NW 4.7 mph 9.2 mph 57 % 0.00 in
02:24 18.7 °F 6.4 °F 30.20 in North 5.7 mph 8.1 mph 58 % 0.00 in
02:32 18.6 °F 7.0 °F 30.21 in North 5.0 mph 9.2 mph 60 % 0.00 in
02:39 18.5 °F 6.2 °F 30.21 in North 7.0 mph 11.5 mph 58 % 0.00 in
02:47 18.4 °F 6.4 °F 30.22 in NW 8.0 mph 13.8 mph 59 % 0.00 in
02:54 18.3 °F 5.6 °F 30.22 in North 8.0 mph 12.0 mph 57 % 0.00 in
02:59 18.2 °F 6.3 °F 30.22 in North 6.2 mph 11.5 mph 59 % 0.00 in
03:08 18.2 °F 6.6 °F 30.22 in NNW 5.4 mph 8.0 mph 60 % 0.00 in
03:14 18.0 °F 6.1 °F 30.21 in NNW 7.1 mph 12.7 mph 59 % 0.00 in
03:32 17.9 °F 6.3 °F 30.22 in NNW 9.0 mph 19.6 mph 60 % 0.00 in
03:45 17.9 °F 6.3 °F 30.22 in North 8.2 mph 15.0 mph 60 % 0.00 in
03:50 17.7 °F 6.2 °F 30.22 in NNW 7.6 mph 15.0 mph 60 % 0.00 in
04:00 17.7 °F 6.2 °F 30.22 in NW 8.0 mph 13.8 mph 60 % 0.00 in
04:05 17.6 °F 6.1 °F 30.22 in North 8.9 mph 15.0 mph 60 % 0.00 in
04:10 17.5 °F 6.0 °F 30.22 in NNE 9.7 mph 15.0 mph 60 % 0.00 in
04:15 17.4 °F 5.9 °F 30.22 in North 7.8 mph 13.0 mph 60 % 0.00 in
04:22 17.3 °F 5.4 °F 30.22 in NE 7.9 mph 13.8 mph 59 % 0.00 in
04:27 17.3 °F 6.1 °F 30.23 in North 7.8 mph 10.0 mph 61 % 0.00 in
04:33 17.3 °F 5.8 °F 30.23 in NNW 7.1 mph 13.8 mph 60 % 0.00 in
04:38 17.2 °F 6.4 °F 30.23 in North 5.6 mph 9.2 mph 62 % 0.00 in
04:50 17.2 °F 6.4 °F 30.23 in North 5.7 mph 12.0 mph 62 % 0.00 in
05:04 17.0 °F 5.5 °F 30.23 in NNW 7.1 mph 10.0 mph 60 % 0.00 in
05:11 17.0 °F 5.5 °F 30.24 in NNW 5.5 mph 9.2 mph 60 % 0.00 in
05:16 16.9 °F 5.8 °F 30.25 in NNE 5.2 mph 10.4 mph 61 % 0.00 in
05:24 16.9 °F 5.4 °F 30.25 in WNW 6.0 mph 11.5 mph 60 % 0.00 in
05:29 17.0 °F 5.5 °F 30.25 in NNE 5.2 mph 9.2 mph 60 % 0.00 in
05:37 17.0 °F 5.5 °F 30.25 in NW 7.2 mph 13.8 mph 60 % 0.00 in
05:43 16.9 °F 4.7 °F 30.26 in NNW 5.7 mph 10.4 mph 58 % 0.00 in
05:49 16.9 °F 5.0 °F 30.26 in NW 4.6 mph 9.2 mph 59 % 0.00 in
05:57 16.9 °F 4.7 °F 30.27 in NNW 5.6 mph 6.9 mph 58 % 0.00 in
06:03 17.0 °F 4.7 °F 30.27 in NNW 6.6 mph 12.7 mph 58 % 0.00 in
06:11 16.9 °F 4.7 °F 30.28 in NNW 7.9 mph 12.7 mph 58 % 0.00 in
06:18 16.9 °F 4.3 °F 30.29 in North 7.2 mph 10.4 mph 57 % 0.00 in
06:24 16.8 °F 4.2 °F 30.29 in NNW 7.0 mph 10.4 mph 57 % 0.00 in
06:34 16.8 °F 3.8 °F 30.29 in NNE 4.0 mph 6.9 mph 56 % 0.00 in
06:48 16.8 °F 4.6 °F 30.30 in NNE 2.9 mph 9.2 mph 58 % 0.00 in
06:56 16.8 °F 4.2 °F 30.30 in NNE 7.6 mph 11.5 mph 57 % 0.00 in
07:01 16.8 °F 3.8 °F 30.31 in NNE 6.5 mph 10.4 mph 56 % 0.00 in
07:06 16.8 °F 3.4 °F 30.31 in NNE 4.4 mph 12.7 mph 55 % 0.00 in
07:18 16.7 °F 3.7 °F 30.31 in NNE 7.5 mph 11.5 mph 56 % 0.00 in
07:28 16.7 °F 3.7 °F 30.32 in NNE 4.6 mph 6.9 mph 56 % 0.00 in
07:51 17.0 °F 4.0 °F 30.33 in North 9.5 mph 12.7 mph 56 % 0.00 in
07:56 17.0 °F 4.4 °F 30.33 in North 6.2 mph 13.8 mph 57 % 0.00 in
08:01 17.1 °F 3.7 °F 30.33 in NNE 7.6 mph 14.0 mph 55 % 0.00 in
08:10 16.9 °F 3.5 °F 30.34 in NNW 10.2 mph 15.0 mph 55 % 0.00 in
08:23 16.4 °F 3.0 °F 30.35 in NNE 6.2 mph 9.2 mph 55 % 0.00 in
08:29 16.2 °F 3.2 °F 30.35 in NNE 7.5 mph 11.0 mph 56 % 0.00 in
08:35 16.1 °F 3.1 °F 30.36 in NNE 6.6 mph 10.4 mph 56 % 0.00 in
08:45 16.0 °F 3.4 °F 30.36 in North 6.9 mph 9.2 mph 57 % 0.00 in
08:52 15.9 °F 3.0 °F 30.37 in North 5.4 mph 11.5 mph 56 % 0.00 in
09:01 16.1 °F 3.1 °F 30.36 in North 4.9 mph 9.2 mph 56 % 0.00 in
09:15 16.8 °F 4.6 °F 30.38 in North 4.1 mph 11.5 mph 58 % 0.00 in
09:26 17.3 °F 4.3 °F 30.38 in North 3.0 mph 7.0 mph 56 % 0.00 in
09:35 17.8 °F 3.9 °F 30.38 in North 6.0 mph 15.0 mph 54 % 0.00 in
09:41 18.0 °F 3.7 °F 30.39 in North 5.2 mph 9.0 mph 53 % 0.00 in
09:52 18.6 °F 4.7 °F 30.40 in North 5.4 mph 8.0 mph 54 % 0.00 in
10:06 19.3 °F 4.9 °F 30.40 in NNW 4.8 mph 6.9 mph 53 % 0.00 in
10:26 20.0 °F 3.9 °F 30.40 in NNW 3.7 mph 8.1 mph 49 % 0.00 in
10:31 20.3 °F 4.2 °F 30.39 in North 4.5 mph 8.1 mph 49 % 0.00 in
10:39 20.5 °F 3.9 °F 30.39 in NW 5.9 mph 5.9 mph 48 % 0.00 in
10:45 20.6 °F 4.0 °F 30.39 in NNW 4.8 mph 10.4 mph 48 % 0.00 in
10:53 21.0 °F 5.2 °F 30.39 in NNW 3.1 mph 4.6 mph 50 % 0.00 in
10:58 21.3 °F 5.1 °F 30.38 in NNE 5.2 mph 8.0 mph 49 % 0.00 in
11:04 21.7 °F 5.0 °F 30.38 in North 3.4 mph 6.9 mph 48 % 0.00 in
11:10 21.8 °F 5.1 °F 30.38 in NNE 6.3 mph 11.5 mph 48 % 0.00 in
11:15 21.7 °F 4.5 °F 30.38 in NNW 6.9 mph 11.5 mph 47 % 0.00 in
11:20 21.5 °F 3.9 °F 30.37 in NNE 4.6 mph 6.0 mph 46 % 0.00 in
11:28 21.5 °F 4.8 °F 30.37 in North 8.8 mph 12.0 mph 48 % 0.00 in
11:33 21.5 °F 4.8 °F 30.37 in North 5.5 mph 12.0 mph 48 % 0.00 in
11:43 21.6 °F 4.4 °F 30.37 in North 4.8 mph 11.5 mph 47 % 0.00 in
11:54 21.6 °F 3.5 °F 30.36 in North 7.5 mph 10.4 mph 45 % 0.00 in
11:59 21.6 °F 4.4 °F 30.37 in North 7.2 mph 12.0 mph 47 % 0.00 in
12:07 21.7 °F 3.6 °F 30.36 in North 4.2 mph 12.7 mph 45 % 0.00 in
12:12 21.8 °F 3.7 °F 30.36 in North 7.3 mph 12.7 mph 45 % 0.00 in
12:17 22.1 °F 4.9 °F 30.36 in North 6.6 mph 10.4 mph 47 % 0.00 in
12:24 22.5 °F 4.8 °F 30.36 in NNE 2.8 mph 6.9 mph 46 % 0.00 in
12:29 22.9 °F 5.2 °F 30.36 in NNE 5.3 mph 9.2 mph 46 % 0.00 in
12:58 24.1 °F 4.8 °F 30.35 in North 7.2 mph 10.4 mph 43 % 0.00 in
13:03 24.3 °F 5.0 °F 30.35 in North 6.6 mph 10.4 mph 43 % 0.00 in
13:20 24.7 °F 5.3 °F 30.34 in NNE 6.8 mph 9.2 mph 43 % 0.00 in
13:38 25.4 °F 6.5 °F 30.34 in NNE 5.1 mph 11.0 mph 44 % 0.00 in
13:45 25.4 °F 4.9 °F 30.34 in NNE 8.0 mph 13.8 mph 41 % 0.00 in
13:51 25.4 °F 6.0 °F 30.34 in NE 10.0 mph 13.8 mph 43 % 0.00 in
13:58 25.6 °F 5.1 °F 30.34 in NNE 7.8 mph 10.4 mph 41 % 0.00 in
14:11 25.6 °F 4.6 °F 30.35 in North 8.3 mph 10.4 mph 40 % 0.00 in
14:17 25.7 °F 4.7 °F 30.35 in NNE 8.7 mph 15.0 mph 40 % 0.00 in
14:24 25.5 °F 5.0 °F 30.35 in NNW 6.8 mph 13.8 mph 41 % 0.00 in
14:29 25.2 °F 4.8 °F 30.35 in NNE 8.2 mph 11.5 mph 41 % 0.00 in
14:38 25.1 °F 5.7 °F 30.35 in NE 7.6 mph 10.0 mph 43 % 0.00 in
14:43 24.9 °F 5.5 °F 30.35 in North 6.8 mph 11.5 mph 43 % 0.00 in
14:57 24.5 °F 5.2 °F 30.35 in NNE 7.6 mph 11.5 mph 43 % 0.00 in
15:03 24.4 °F 5.1 °F 30.36 in North 6.4 mph 10.4 mph 43 % 0.00 in
15:22 24.2 °F 4.9 °F 30.36 in NNW 8.2 mph 15.0 mph 43 % 0.00 in
15:31 24.1 °F 4.8 °F 30.36 in North 7.2 mph 11.0 mph 43 % 0.00 in
15:40 24.1 °F 5.3 °F 30.36 in NNW 6.9 mph 9.2 mph 44 % 0.00 in
15:49 24.0 °F 5.2 °F 30.37 in North 7.1 mph 10.4 mph 44 % 0.00 in
15:55 23.9 °F 5.6 °F 30.37 in North 5.2 mph 6.9 mph 45 % 0.00 in
16:14 23.6 °F 3.8 °F 30.37 in North 9.3 mph 15.0 mph 42 % 0.00 in
16:24 23.3 °F 4.1 °F 30.37 in NNE 7.1 mph 12.7 mph 43 % 0.00 in
16:29 23.2 °F 4.5 °F 30.37 in NNE 8.4 mph 16.1 mph 44 % 0.00 in
16:34 23.1 °F 4.4 °F 30.38 in NNE 7.5 mph 11.5 mph 44 % 0.00 in
16:43 23.0 °F 4.8 °F 30.38 in NNW 7.0 mph 9.2 mph 45 % 0.00 in
16:56 22.6 °F 4.4 °F 30.38 in North 5.8 mph 10.4 mph 45 % 0.00 in
17:08 22.4 °F 4.7 °F 30.39 in NNE 6.7 mph 11.5 mph 46 % 0.00 in
17:13 22.4 °F 5.6 °F 30.39 in NE 4.3 mph 9.2 mph 48 % 0.00 in
17:22 22.3 °F 6.0 °F 30.39 in NNW 5.7 mph 12.0 mph 49 % 0.00 in
17:28 22.2 °F 5.9 °F 30.39 in North 7.6 mph 13.0 mph 49 % 0.00 in
17:33 22.1 °F 5.8 °F 30.39 in NNE 8.3 mph 10.4 mph 49 % 0.00 in
17:39 22.0 °F 6.2 °F 30.40 in North 5.8 mph 6.9 mph 50 % 0.00 in
17:51 21.8 °F 6.4 °F 30.40 in NE 7.2 mph 12.0 mph 51 % 0.00 in
18:00 21.6 °F 6.7 °F 30.40 in NNE 8.2 mph 11.5 mph 52 % 0.00 in
18:05 21.5 °F 7.0 °F 30.40 in NE 7.9 mph 11.5 mph 53 % 0.00 in
18:12 21.3 °F 6.8 °F 30.40 in NNE 8.4 mph 12.7 mph 53 % 0.00 in
18:24 21.1 °F 7.8 °F 30.41 in NNE 6.0 mph 11.5 mph 56 % 0.00 in
18:30 20.8 °F 7.2 °F 30.41 in NNE 6.7 mph 11.5 mph 55 % 0.00 in
18:40 20.5 °F 7.3 °F 30.41 in NNW 4.7 mph 10.4 mph 56 % 0.00 in
18:50 20.3 °F 7.5 °F 30.42 in NNE 9.2 mph 13.8 mph 57 % 0.00 in
18:57 20.2 °F 8.1 °F 30.42 in North 6.9 mph 10.4 mph 59 % 0.00 in
19:06 20.0 °F 8.7 °F 30.42 in North 6.5 mph 12.7 mph 61 % 0.00 in
19:13 20.0 °F 9.1 °F 30.42 in North 6.9 mph 10.4 mph 62 % 0.00 in
19:18 20.0 °F 9.4 °F 30.42 in NW 6.6 mph 11.5 mph 63 % 0.00 in
19:24 19.9 °F 9.3 °F 30.43 in NNE 6.8 mph 8.1 mph 63 % 0.00 in
19:32 19.8 °F 9.2 °F 30.43 in NNE 11.3 mph 17.3 mph 63 % 0.00 in
19:39 19.7 °F 9.5 °F 30.42 in North 7.5 mph 10.4 mph 64 % 0.00 in
19:48 19.6 °F 9.7 °F 30.42 in North 8.1 mph 15.0 mph 65 % 0.00 in
19:56 19.6 °F 10.1 °F 30.42 in NE 6.8 mph 14.0 mph 66 % 0.00 in
20:01 19.5 °F 10.0 °F 30.42 in NNE 8.4 mph 10.4 mph 66 % 0.00 in
20:19 19.3 °F 10.5 °F 30.42 in NNE 10.0 mph 17.3 mph 68 % 0.00 in
20:30 19.1 °F 10.6 °F 30.42 in North 9.2 mph 17.0 mph 69 % 0.00 in
20:39 19.1 °F 10.6 °F 30.42 in NNE 9.1 mph 13.8 mph 69 % 0.00 in
20:44 19.1 °F 10.9 °F 30.42 in NNE 8.8 mph 15.0 mph 70 % 0.00 in
20:53 19.0 °F 10.8 °F 30.42 in NNE 6.9 mph 12.7 mph 70 % 0.00 in
21:02 19.0 °F 10.8 °F 30.42 in NNW 9.2 mph 13.0 mph 70 % 0.00 in
21:07 18.9 °F 10.7 °F 30.41 in NNE 6.8 mph 8.1 mph 70 % 0.00 in
21:16 18.9 °F 11.0 °F 30.41 in NNE 6.0 mph 12.0 mph 71 % 0.00 in
21:21 18.9 °F 11.0 °F 30.42 in NE 9.5 mph 12.7 mph 71 % 0.00 in
21:29 18.8 °F 10.9 °F 30.42 in NNE 8.9 mph 12.7 mph 71 % 0.00 in
21:39 18.8 °F 10.6 °F 30.44 in North 7.7 mph 10.4 mph 70 % 0.00 in
21:44 18.8 °F 10.6 °F 30.43 in NNE 4.5 mph 9.2 mph 70 % 0.00 in
21:59 18.8 °F 10.9 °F 30.43 in NE 8.8 mph 13.0 mph 71 % 0.00 in
22:13 18.8 °F 10.9 °F 30.45 in ENE 5.8 mph 9.0 mph 71 % 0.00 in
22:30 18.9 °F 11.0 °F 30.45 in NNE 4.8 mph 6.9 mph 71 % 0.00 in
22:35 18.9 °F 10.7 °F 30.46 in NNE 3.4 mph 5.8 mph 70 % 0.00 in
22:41 19.0 °F 10.8 °F 30.45 in NE 4.5 mph 10.4 mph 70 % 0.00 in
22:46 19.1 °F 10.6 °F 30.46 in NE 6.0 mph 12.0 mph 69 % 0.00 in
22:52 19.1 °F 10.9 °F 30.45 in NE 5.2 mph 9.2 mph 70 % 0.00 in
22:58 19.2 °F 10.7 °F 30.44 in NE 7.1 mph 10.0 mph 69 % 0.00 in
23:03 19.2 °F 11.0 °F 30.44 in NNE 4.4 mph 9.2 mph 70 % 0.00 in
23:10 19.2 °F 11.0 °F 30.43 in NE 4.9 mph 8.1 mph 70 % 0.00 in
23:15 19.2 °F 10.7 °F 30.43 in NNE 4.3 mph 10.4 mph 69 % 0.00 in
23:26 19.2 °F 11.0 °F 30.43 in NNE 6.6 mph 19.6 mph 70 % 0.00 in
23:32 19.2 °F 11.0 °F 30.43 in NE 5.6 mph 8.1 mph 70 % 0.00 in
23:40 19.2 °F 11.3 °F 30.43 in North 10.6 mph 16.0 mph 71 % 0.00 in
Crab Meadow Weather
Compliments of Weather Underground - 2.25 mb

Script developed by  Jim McMurry - jmcmurry@mwt.net Adapted for the template by  Wim van der Kuil - Leuven-Template.eu

Recycling: In 2006, a record 53.4 percent of the paper consumed in the U.S. was recovered for recycling. Americans recovered an extraordinary 53.5 million tons, averaging 360 pounds per person.